Home   Weather   Dieppe   Past weeks

Flag for Canada Past Weather in Dieppe, New Brunswick, Canada — Yesterday and Last 2 Weeks

Now
46 °F

Clear.


Feels Like: 42 °F
Forecast: 43 / 53 °F
Wind: 9 mph from Southwest

Location: Moncton

Current Time: Sep 27, 2016 at 12:51:00 AM

Latest Report: Sep 27, 2016 at 12:00 AM


Visibility: 15 mi

Pressure: 29.95 "Hg

Humidity: 82%

Dew Point: 41 °F

Location of DieppeLocation

Past Weather in Dieppe — Graph

°F

Dieppe Temperature Yesterday

Maximum temperature yesterday: 61 °F (at 4:00 PM)
Minimum temperature yesterday: 41 °F (at 4:00 AM)
Average temperature yesterday: 49 °F

High & Low Weather Summary for the Past Weeks

 TemperatureHumidityPressure
High77 °F (Sep 13, 3:00 PM)100% (Sep 14, 5:00 AM)30.32 "Hg (Sep 14, 5:00 AM)
Low36 °F (Sep 25, 7:00 AM)36% (Sep 21, 3:00 PM)29.79 "Hg (Sep 14, 6:00 PM)
Average57 °F78%30.03 "Hg
* Reported Sep 11 11:00 PM — Sep 26 11:00 PM, Dieppe, Weather by CustomWeather, © 2016

Note: Actual official high and low records may vary slightly from our data, if they occured in-between our weather recording intervals... More about our weather records

Advertising

Dieppe Weather History for the Previous 24 Hours

Scroll right to see more
 ConditionsComfort  
Time TempWeatherWind HumidityBarometerVisibility
11:00 PM
Mon, Sep 26
46 °FClear.9 mph82%29.96 "Hg15 mi
10:00 PM48 °FClear.13 mph82%29.97 "Hg15 mi
9:00 PM50 °FClear.10 mph76%29.97 "Hg15 mi
8:00 PM52 °FPassing clouds.9 mph72%29.97 "Hg15 mi
7:00 PM55 °FScattered clouds.9 mph59%29.96 "Hg15 mi
6:00 PM59 °FScattered clouds.10 mph48%29.95 "Hg15 mi
5:00 PM59 °FBroken clouds.13 mph51%29.96 "Hg15 mi
4:00 PM61 °FBroken clouds.13 mph45%29.97 "Hg15 mi
2:00 PM57 °FBroken clouds.13 mph51%30.02 "Hg15 mi
1:00 PM54 °FBroken clouds.8 mph54%30.05 "Hg15 mi
12:00 PM54 °FScattered clouds.16 mph58%30.06 "Hg15 mi
11:00 AM52 °FPassing clouds.14 mph58%30.06 "Hg15 mi
10:00 AM50 °FPassing clouds.16 mph62%30.05 "Hg15 mi
9:00 AM45 °FPassing clouds.10 mph81%30.05 "Hg15 mi
8:00 AM41 °FPassing clouds.9 mph87%30.04 "Hg15 mi
7:00 AM41 °FPassing clouds.8 mph87%30.01 "Hg15 mi
6:00 AM41 °FPassing clouds.9 mph87%30.00 "Hg15 mi
5:00 AM41 °FPassing clouds.7 mph87%29.98 "Hg15 mi
4:00 AM41 °FClear.9 mph87%29.97 "Hg15 mi
3:00 AM43 °FClear.10 mph81%29.96 "Hg15 mi
2:00 AM43 °FPassing clouds.10 mph81%29.96 "Hg15 mi
1:00 AM43 °FClear.12 mph81%29.96 "Hg14 mi
12:00 AM43 °FClear.10 mph81%29.96 "Hg15 mi
Weather by CustomWeather, © 2016

See weather overviewHow to use our weather pages